{"data":{"norad_id":66468,"epoch":"2026-09-20T08:27:38.666304Z","epoch_age_seconds":102030,"freshness":"FRESH","line1":"1 66468U 25262N   26263.35253086  .00009768  00000+0  36394-3 0  9995","line2":"2 66468  42.9977 277.1539 0000451 294.1787  65.9017 15.27586008 48677","mean_motion":15.27586008,"eccentricity":4.51e-5,"inclination_deg":42.9977,"raan_deg":277.1539,"arg_perigee_deg":294.1787,"mean_anomaly_deg":65.9017,"bstar":0.00036394,"rev_number":4867,"period_min":94.266377962268,"perigee_km":482.72166730367,"apogee_km":483.34054466683,"semimajor_km":6861.1681059852,"source":"CELESTRAK","updated_at":"2026-09-21T09:00:35.914755Z"}}